GMBLR21 KNZY-

Flight info

Callsign GMBLR21
Flight time N/A
Altitude VFR
Route
Aircraft

Departure

Time 2026-04-24 04:05
Airport North Island Naval Air Station-Halsey Field (KNZY)

Arrival

Time N/A
Airport -
Time Latitude Longitude Altitude Speed Heading
2026-04-24 04:02 32.71124 -117.20735 22 ft 0 kts 250°
2026-04-24 04:03 32.71121 -117.20748 23 ft 1 kts 267°
2026-04-24 04:03 32.71121 -117.20750 22 ft 0 kts 266°
2026-04-24 04:03 32.71129 -117.20776 21 ft 6 kts 320°
2026-04-24 04:03 32.71164 -117.20791 21 ft 4 kts 346°
2026-04-24 04:04 32.71178 -117.20795 21 ft 0 kts 343°
2026-04-24 04:04 32.71194 -117.20800 277 ft 7 kts 339°
2026-04-24 04:04 32.71330 -117.20829 465 ft 44 kts 337°
2026-04-24 04:05 32.71648 -117.21403 575 ft 126 kts 276°
2026-04-24 04:05 32.71847 -117.22518 634 ft 145 kts 297°
2026-04-24 04:05 32.72547 -117.23328 810 ft 142 kts 323°
2026-04-24 04:05 32.73323 -117.24092 956 ft 149 kts 320°
2026-04-24 04:06 32.74155 -117.24880 933 ft 159 kts 332°
2026-04-24 04:06 32.75216 -117.25275 1011 ft 159 kts 348°
2026-04-24 04:06 32.76286 -117.25570 1127 ft 159 kts 348°
2026-04-24 04:06 32.77369 -117.25830 1087 ft 157 kts 349°
2026-04-24 04:07 32.78445 -117.26086 1093 ft 156 kts 349°
2026-04-24 04:07 32.79520 -117.26342 1095 ft 159 kts 349°
2026-04-24 04:07 32.80534 -117.26730 1100 ft 149 kts 334°
2026-04-24 04:07 32.81432 -117.27369 1102 ft 157 kts 329°
2026-04-24 04:08 32.82451 -117.27968 1097 ft 168 kts 339°
2026-04-24 04:08 32.83612 -117.28251 1096 ft 173 kts 356°
2026-04-24 04:08 32.84812 -117.28098 1097 ft 175 kts 14°
2026-04-24 04:08 32.85922 -117.27612 1104 ft 153 kts 21°
2026-04-24 04:09 32.86952 -117.27143 1099 ft 157 kts 20°
2026-04-24 04:09 32.87987 -117.26686 1099 ft 158 kts 20°
2026-04-24 04:09 32.89022 -117.26330 1099 ft 152 kts 12°
2026-04-24 04:09 32.90082 -117.26201 1096 ft 161 kts
2026-04-24 04:10 32.91238 -117.26160 1087 ft 171 kts 359°
2026-04-24 04:10 32.92286 -117.26228 1094 ft 136 kts 355°
2026-04-24 04:10 32.93322 -117.26336 1089 ft 161 kts 355°
2026-04-24 04:11 32.95552 -117.26845 1083 ft 161 kts 347°
2026-04-24 04:11 32.96625 -117.27136 1084 ft 159 kts 347°
2026-04-24 04:11 32.97697 -117.27428 1083 ft 159 kts 347°
2026-04-24 04:11 32.98769 -117.27719 1080 ft 157 kts 347°
2026-04-24 04:12 32.99840 -117.28008 1079 ft 159 kts 347°
2026-04-24 04:12 33.00907 -117.28274 1078 ft 159 kts 349°
2026-04-24 04:12 33.02000 -117.28670 1079 ft 157 kts 341°
2026-04-24 04:12 33.02929 -117.29059 1088 ft 129 kts 341°
2026-04-24 04:13 33.03837 -117.29433 1066 ft 153 kts 341°
2026-04-24 04:13 33.04879 -117.29857 1081 ft 158 kts 341°
2026-04-24 04:13 33.05933 -117.30282 1080 ft 159 kts 341°
2026-04-24 04:13 33.06986 -117.30707 1078 ft 163 kts 341°
2026-04-24 04:14 33.07966 -117.31105 1088 ft 135 kts 341°
2026-04-24 04:14 33.08832 -117.31458 1073 ft 146 kts 341°
2026-04-24 04:14 33.09872 -117.31877 1074 ft 161 kts 341°
2026-04-24 04:14 33.10931 -117.32301 1077 ft 161 kts 341°
2026-04-24 04:15 33.11989 -117.32723 1079 ft 160 kts 341°
2026-04-24 04:15 33.13004 -117.33210 1078 ft 162 kts 337°
2026-04-24 04:15 33.14035 -117.33740 1079 ft 160 kts 337°
2026-04-24 04:15 33.15057 -117.34263 1079 ft 160 kts 337°
2026-04-24 04:16 33.16055 -117.34763 1070 ft 153 kts 338°
2026-04-24 04:16 33.17072 -117.35122 1070 ft 158 kts 347°
2026-04-24 04:16 33.18162 -117.35421 1078 ft 155 kts 347°
2026-04-24 04:16 33.19274 -117.35666 1043 ft 167 kts 354°
2026-04-24 04:17 33.20378 -117.35807 1105 ft 164 kts 354°
2026-04-24 04:17 33.21527 -117.35938 1321 ft 171 kts 354°
2026-04-24 04:17 33.22642 -117.36068 1457 ft 151 kts 354°
2026-04-24 04:17 33.23737 -117.36041 1376 ft 163 kts
2026-04-24 04:18 33.24884 -117.35872 1258 ft 169 kts
2026-04-24 04:18 33.26049 -117.35694 1163 ft 166 kts
2026-04-24 04:18 33.27149 -117.35529 1111 ft 152 kts
2026-04-24 04:18 33.28144 -117.35306 979 ft 137 kts 12°
2026-04-24 04:19 33.28990 -117.35099 802 ft 109 kts 13°
2026-04-24 04:19 33.29584 -117.34929 719 ft 70 kts 14°
2026-04-24 04:19 33.29994 -117.34796 480 ft 47 kts 11°
2026-04-24 04:19 33.30246 -117.34746 351 ft 21 kts
2026-04-24 04:20 33.30319 -117.34749 241 ft 11 kts
2026-04-24 04:20 33.30361 -117.34749 120 ft 5 kts 36°
2026-04-24 04:20 33.30376 -117.34729 82 ft 0 kts 38°
2026-04-24 04:22 33.30381 -117.34724 82 ft 3 kts 36°
2026-04-24 04:22 33.30401 -117.34704 80 ft 2 kts 43°
2026-04-24 04:23 33.30416 -117.34686 83 ft 2 kts 45°
2026-04-24 04:23 33.30420 -117.34682 84 ft 0 kts 44°